Montauk, NY

4:07 AM EDT on September 21, 2017 (GMT -0400)
Montauk

Weather History for KMTP - March, 2013

Change the Weather History Date:

Sunday, March 24, 2013

  Actual Average (KHTO) Record (KHTO)
Temperature  
Mean Temperature 40 °F -  
Max Temperature 44 °F 47 °F 65 °F (1938)
Min Temperature 35 °F 31 °F 17 °F (2017)
Degree Days  
Heating Degree Days 26    
Moisture  
Dew Point 23 °F    
Average Humidity 54    
Maximum Humidity 72    
Minimum Humidity 40    
Precipitation  
Precipitation 0.00 in - - ()
Sea Level Pressure  
Sea Level Pressure 29.82 in    
Wind  
Wind Speed 10 mph (West)    
Max Wind Speed 15 mph    
Max Gust Speed 23 mph    
Averages and records for this station are not official NWS values.
T = Trace of Precipitation, MM = Missing Value Source: NWS Daily Summary

Daily Weather History Graph

Daily Weather History Graph

Search for Another Location

Airport or City:

Trip Planner

Search our weather history database for the weather conditions in past years. The results will help you decide how hot, cold, wet, or windy it might be!

Date:

Astronomy

Mar. 24, 2013 Rise Set
Actual Time 6:43 AM EDT 7:04 PM EDT
Civil Twilight 6:16 AM EDT 7:31 PM EDT
Nautical Twilight 5:44 AM EDT 8:04 PM EDT
Astronomical Twilight 5:11 AM EDT 8:37 PM EDT
Moon 4:28 PM EDT (3/24) 4:53 AM EDT (3/24)
Length of Visible Light 13h 15m
Length of Day
12h 20m
Waxing Gibbous, 91% of the Moon is Illuminated
Mar 24
Waxing Gibbous
Mar 27
Full
Apr 3
Last Quarter
Apr 10
New
Apr 18
First Quarter

Hourly Weather History & Observations

Time (EDT) Temp. Windchill Dew Point Humidity Pressure Visibility Wind Dir Wind Speed Gust Speed Precip Events Conditions
12:54 AM 37.0 °F 28.1 °F 19.0 °F 48% 29.88 in - WNW 15.0 mph 23.0 mph N/A   Unknown
1:54 AM 36.0 °F 28.0 °F 19.9 °F 52% 29.87 in - WNW 11.5 mph 23.0 mph N/A   Unknown
3:54 AM 35.1 °F 26.4 °F 21.9 °F 59% 29.83 in - WNW 12.7 mph 18.4 mph N/A   Unknown
6:54 AM 35.1 °F 26.4 °F 21.9 °F 59% 29.88 in - WNW 12.7 mph 21.9 mph N/A   Unknown
7:54 AM 36.0 °F 28.5 °F 21.9 °F 57% 29.88 in - WNW 10.4 mph 18.4 mph N/A   Unknown
8:54 AM 37.9 °F 30.9 °F 21.9 °F 53% 29.90 in - West 10.4 mph 18.4 mph N/A   Unknown
9:54 AM 39.0 °F 31.0 °F 23.0 °F 53% 29.89 in - WNW 13.8 mph 21.9 mph N/A   Unknown
10:54 AM 39.0 °F 31.8 °F 23.0 °F 53% 29.87 in - West 11.5 mph 19.6 mph N/A   Unknown
11:54 AM 41.0 °F 34.7 °F 23.0 °F 49% 29.85 in - West 10.4 mph - N/A   Unknown
12:54 PM 42.1 °F 36.6 °F 21.9 °F 45% 29.82 in - WNW 9.2 mph - N/A   Unknown
1:54 PM 42.1 °F 37.1 °F 21.9 °F 45% 29.82 in - West 8.1 mph - N/A   Unknown
2:54 PM 43.0 °F 38.2 °F 21.9 °F 43% 29.78 in - West 8.1 mph - N/A   Unknown
3:54 PM 44.1 °F 40.1 °F 21.0 °F 40% 29.75 in - West 6.9 mph - N/A   Unknown
4:54 PM 43.0 °F 40.3 °F 23.0 °F 45% 29.73 in - WSW 4.6 mph - N/A   Unknown
5:54 PM 41.0 °F 37.1 °F 28.9 °F 62% 29.74 in - Variable 5.8 mph - N/A   Unknown
7:54 PM 39.0 °F 36.8 °F 28.9 °F 67% 29.75 in - SSE 3.5 mph - N/A   Unknown
8:54 PM 37.9 °F - 28.0 °F 68% 29.80 in - Calm Calm - N/A   Unknown
9:54 PM 39.0 °F 36.8 °F 27.0 °F 62% 29.79 in - SSE 3.5 mph - N/A   Unknown
11:54 PM 35.1 °F - 27.0 °F 72% 29.77 in - Calm Calm - N/A   Unknown